Temperature
7 6 6 6 7 8 8 8 8 9 10 10 9 10 10 11 12 12 13 14 15 16 18 18 18 19 19 19 19 19 18 17 16 15 14 13 13 13 12 12 12 11 11 11
6 6 6 7 7 7 7 7 7 8 10 10 9 9 10 10 11 12 13 13 15 16 17 18 18 18 18 18 18 18 17 16 16 14 13 13 13 12 12 12 11 11 11 11
5 6 7 7 6 6 6 6 6 7 8 8 8 9 9 10 12 13 13 14 14 15 17 18 18 18 17 17 17 17 16 15 14 14 13 13 12 12 11 11 11 11 11 11
5 5 6 6 6 6 6 6 7 7 6 5 7 7 8 10 10 11 12 13 14 16 17 18 18 17 17 16 16 16 15 14 14 13 13 13 12 12 11 11 11 11 11 10
5 5 5 6 6 6 5 7 7 7 6 6 6 6 8 9 9 10 11 13 15 16 17 18 18 18 17 16 15 15 14 14 13 13 13 12 12 12 11 11 11 11 10 10
5 6 6 6 6 7 7 7 7 6 6 6 7 6 7 8 9 10 11 14 16 17 17 17 18 17 16 15 14 14 13 12 12 13 12 12 11 11 11 11 11 11 10 9
6 6 6 6 6 6 6 5 6 6 6 6 7 7 8 8 10 11 12 14 16 17 16 16 16 16 15 14 14 13 12 12 12 12 12 11 11 11 11 11 11 10 10 9
5 5 6 5 6 5 5 6 5 6 6 6 7 7 8 10 10 12 13 15 15 16 16 15 15 16 15 15 13 12 12 12 12 11 11 11 11 11 11 11 10 9 9 8
5 5 6 6 6 7 5 5 6 6 6 6 6 7 8 10 9 10 11 13 13 14 15 15 14 14 15 14 13 12 12 12 11 11 11 11 11 11 10 10 9 9 8 7
4 4 5 6 6 6 6 5 5 5 5 6 6 6 8 10 10 10 10 10 12 13 13 13 13 13 13 13 12 12 12 11 11 11 11 11 10 10 10 9 9 8 7 7
5 4 5 5 5 5 5 5 5 5 5 4 5 7 9 10 10 10 10 11 12 12 12 12 11 12 13 12 12 11 11 11 11 11 11 11 10 10 9 8 8 7 6 6
6 5 5 5 6 6 6 6 5 5 5 4 5 7 11 10 9 10 10 10 10 10 10 9 9 11 12 12 12 11 11 11 11 11 10 10 10 9 8 8 7 6 6 5
6 5 5 5 5 5 5 5 6 6 5 5 5 7 10 10 10 10 10 9 9 8 8 7 8 10 11 11 11 11 11 11 10 10 10 9 9 8 8 7 6 6 5 5
6 5 5 6 6 6 5 5 6 5 5 6 7 8 10 10 10 10 10 9 7 7 7 7 9 10 11 11 11 10 10 10 10 9 9 9 8 7 7 6 5 5 4 4
6 5 5 5 6 5 5 6 6 6 6 6 8 9 10 10 9 9 9 8 7 6 6 8 9 10 10 10 10 10 10 9 9 9 8 8 7 6 6 5 4 4 3 2
6 5 5 6 6 6 6 6 6 6 7 7 8 8 10 9 9 9 9 8 7 6 6 8 9 10 10 10 10 9 9 9 8 8 7 7 6 5 5 4 3 3 2 1
6 5 6 7 7 7 7 7 7 7 8 8 8 9 9 9 9 8 8 8 7 7 7 8 10 10 10 10 9 9 9 8 8 7 6 6 5 4 3 3 2 2 1 0
6 6 6 6 7 8 9 9 9 8 8 9 9 9 9 8 7 6 7 8 8 7 7 9 10 10 10 9 9 9 8 8 7 6 5 4 3 3 2 2 1 0 0 -0
7 6 6 7 8 9 9 9 9 8 8 9 9 9 9 8 8 7 7 9 9 8 9 9 10 10 10 9 8 8 7 6 5 4 4 3 2 2 1 1 0 -0 -1 -1
6 6 7 7 8 9 10 9 9 10 9 9 9 9 8 7 9 7 6 8 9 9 9 9 10 10 9 8 8 7 6 5 4 3 3 2 1 1 0 -0 -0 -1 -1 -1
6 6 7 7 8 8 9 8 9 9 10 9 9 8 7 7 7 5 6 7 8 9 9 9 9 9 8 8 7 6 5 4 3 2 2 1 0 0 -0 -1 -1 -1 -2 -2
7 7 7 7 8 9 9 8 8 9 8 8 8 8 6 4 4 5 6 7 8 8 8 8 8 7 7 6 6 5 4 3 2 1 1 0 -0 -1 -1 -1 -2 -2 -2 -3
6 7 7 7 8 8 9 9 9 8 8 7 7 8 8 6 4 5 5 5 6 6 7 7 7 6 5 4 4 4 2 1 1 0 -0 -1 -1 -1 -2 -2 -2 -3 -3 -4
6 7 7 7 8 8 9 9 9 8 7 7 8 9 9 7 5 4 5 5 5 6 6 6 6 5 3 2 2 2 1 0 -0 -0 -1 -1 -2 -2 -2 -3 -3 -3 -4 -4
7 8 7 8 8 8 9 9 9 8 7 7 7 7 8 7 5 5 5 5 6 6 5 5 5 4 2 1 1 0 0 -0 -1 -1 -1 -2 -2 -2 -3 -3 -4 -4 -5 -6
6 7 8 8 9 8 8 8 8 8 7 7 7 5 5 7 7 6 6 5 5 5 4 4 3 3 1 0 0 -0 -1 -1 -1 -1 -2 -2 -3 -3 -3 -4 -4 -5 -6 -6
Wind_Speed
4 5 9 11 13 7 1 3 6 5 5 7 12 18 14 11 12 12 13 12 13 13 12 8 8 8 7 7 10 13 15 14 14 12 10 9 8 7 7 7 10 12 14 14
2 11 10 6 7 8 8 11 11 9 5 8 13 24 19 14 15 15 16 16 14 13 9 7 8 8 8 8 11 14 15 14 13 11 7 5 7 7 7 6 8 11 13 12
12 3 6 9 8 7 9 9 8 9 9 8 14 19 15 14 17 19 18 16 15 16 14 11 10 10 9 9 11 12 13 13 13 14 11 11 8 6 5 5 5 6 11 13
9 7 4 6 8 10 10 7 10 11 8 6 7 10 7 9 12 15 15 14 15 16 14 11 12 11 10 9 9 12 13 14 15 16 16 17 10 7 5 5 5 6 10 11
8 5 8 12 10 9 7 6 9 9 9 10 7 10 10 7 10 11 12 13 15 15 15 15 16 14 9 9 11 12 13 13 15 15 17 16 11 8 7 7 8 7 6 8
9 5 6 6 6 11 6 3 5 6 7 12 12 11 11 6 10 10 13 12 12 13 13 13 11 10 9 9 11 13 14 13 13 14 15 16 16 15 13 9 8 6 5 5
10 12 7 5 4 6 8 6 5 6 8 8 8 10 11 9 11 13 15 15 13 10 10 11 13 15 15 15 14 14 16 14 12 14 13 14 16 15 14 11 9 7 5 4
6 8 12 9 11 10 12 12 8 6 5 5 6 11 9 10 12 12 14 12 9 9 10 13 16 17 17 17 16 15 16 14 12 13 11 11 12 10 9 8 8 7 5 5
6 6 4 9 7 9 8 12 8 5 4 6 7 9 10 9 10 12 14 13 10 10 13 14 14 13 15 16 15 15 15 13 12 12 12 11 11 11 10 9 7 6 6 6
8 6 5 4 7 9 7 6 6 9 6 8 9 9 8 9 7 10 12 13 12 11 12 13 13 12 11 11 11 11 13 14 11 11 11 11 10 11 11 10 9 8 7 6
8 8 4 5 12 13 12 9 8 6 5 6 6 8 7 8 4 9 13 13 11 12 14 14 14 13 14 13 12 12 13 14 13 11 12 13 12 11 11 9 8 8 7 7
11 7 7 11 9 10 13 14 13 8 7 6 6 10 4 4 5 10 14 11 5 8 10 12 13 14 15 15 13 12 13 14 12 12 13 13 12 11 10 9 8 8 7 6
11 7 5 4 5 9 11 15 17 11 6 7 8 10 2 5 10 11 11 5 4 10 12 13 13 13 14 14 13 12 12 14 13 13 14 13 11 11 10 9 8 7 7 6
11 8 11 11 5 6 9 14 19 18 11 12 16 19 15 12 15 15 10 3 8 11 14 13 13 12 13 13 13 13 12 13 14 13 13 12 10 9 9 8 8 7 7 6
7 8 11 18 17 12 12 14 19 23 22 13 12 18 20 12 13 13 9 6 10 12 14 14 13 12 13 13 12 12 13 12 13 13 12 10 9 9 8 8 7 7 7 6
6 7 8 14 19 20 20 20 21 24 23 24 18 20 15 11 10 10 7 10 12 14 14 14 14 15 15 15 14 13 13 11 12 13 11 9 9 8 8 8 7 7 6 5
6 4 5 7 8 7 11 19 25 21 18 19 23 22 10 9 6 4 6 11 13 14 15 16 16 15 14 14 15 14 12 12 12 12 10 9 9 8 8 7 7 6 5 4
7 5 4 6 7 4 5 6 12 17 17 17 15 11 7 5 2 2 3 6 10 13 14 13 14 14 13 12 13 14 13 13 12 11 10 8 9 8 7 7 7 5 3 3
9 5 3 4 5 6 6 3 5 8 8 15 18 14 6 1 2 0 3 0 8 10 11 12 13 15 14 14 15 16 13 12 12 10 9 8 8 8 7 7 5 3 3 3
5 4 3 4 5 4 5 4 3 4 5 10 16 15 8 5 2 1 5 6 11 14 14 14 14 15 15 14 15 16 14 12 11 9 9 8 8 8 7 6 3 2 2 3
3 4 5 4 4 6 6 1 6 2 6 5 7 8 9 6 2 5 7 9 12 14 15 16 15 14 13 14 16 16 13 11 10 10 10 9 8 8 6 5 3 2 3 5
6 4 4 3 3 4 3 4 5 6 5 5 3 6 9 10 10 10 11 12 13 15 15 15 16 14 11 13 16 15 12 9 11 11 10 9 7 6 5 5 4 4 4 5
6 6 5 6 6 5 2 4 4 4 4 1 5 9 15 12 10 12 11 12 12 13 13 13 17 15 11 10 14 15 9 10 11 11 9 7 7 6 5 4 4 3 3 4
4 3 3 4 6 5 3 2 3 4 1 3 8 12 12 13 14 14 13 13 12 13 13 14 16 15 12 10 12 12 10 10 11 10 8 6 6 5 5 4 3 3 4 5
5 3 2 5 7 6 3 3 4 5 8 12 11 10 14 18 16 14 13 12 12 13 11 12 14 14 12 11 11 9 9 10 10 8 7 5 5 4 3 3 3 4 4 5
5 7 6 6 6 4 1 6 7 7 9 13 16 14 10 13 16 15 12 11 12 12 12 13 13 13 12 11 10 8 8 9 9 7 5 4 3 3 3 3 4 7 7 11
Wind_Direction
182 200 216 212 214 224 235 270 273 272 313 309 279 280 276 266 264 262 264 263 261 258 259 262 229 198 177 158 150 148 150 146 139 136 133 128 117 108 96 93 100 105 106 104
208 241 230 216 215 230 244 260 269 286 266 280 283 282 277 254 252 251 255 256 254 254 256 234 207 196 191 170 157 153 153 152 145 140 131 121 119 107 94 94 93 99 103 102
216 246 201 198 207 221 233 236 248 263 297 287 293 287 258 243 238 246 247 244 240 242 239 220 201 201 193 179 163 155 151 148 140 132 121 117 109 105 104 101 86 83 96 95
242 245 246 224 220 210 252 222 228 246 254 264 230 281 254 230 245 249 251 242 234 234 227 210 196 197 193 176 153 147 149 147 145 141 142 143 144 142 142 132 113 92 90 95
231 205 216 233 226 198 231 217 217 228 236 254 233 263 275 213 245 253 254 244 232 228 216 205 199 193 174 156 152 150 147 150 153 152 151 147 136 123 122 116 112 97 84 87
239 209 208 224 227 206 205 260 261 237 240 256 222 226 274 209 232 241 248 245 235 225 213 205 182 153 147 151 152 154 153 155 155 149 149 147 141 138 138 134 126 113 98 82
250 232 212 184 197 187 183 205 239 226 221 247 186 213 257 221 221 224 239 244 236 221 199 179 165 165 164 164 162 161 158 156 152 147 145 146 145 146 147 145 138 130 115 103
254 251 205 198 200 192 192 191 207 226 233 271 223 234 257 243 240 243 247 252 235 204 189 183 182 176 169 166 164 163 159 153 148 144 136 134 135 135 134 133 131 123 120 123
239 263 244 211 194 181 187 209 217 251 263 276 262 278 298 267 259 259 259 258 240 210 191 185 178 172 165 163 163 161 153 145 143 137 128 127 127 126 127 121 111 112 118 114
196 254 250 215 184 218 201 180 183 210 221 241 257 256 249 272 299 302 289 272 245 208 190 177 166 156 150 147 141 141 142 139 132 128 128 126 120 120 121 116 116 113 104 98
185 224 251 199 203 202 193 203 207 212 201 205 252 256 221 214 268 318 316 292 249 203 185 171 156 143 134 129 131 131 128 126 124 120 118 118 115 113 110 110 112 110 103 100
195 221 241 227 223 204 203 205 196 209 218 213 238 260 247 240 319 339 330 311 248 173 153 144 138 135 134 131 130 131 129 124 121 119 116 115 114 112 109 109 110 110 106 98
175 213 249 261 227 202 219 218 211 216 220 222 235 262 222 291 321 333 329 315 128 125 126 128 131 134 132 129 127 126 124 121 119 118 116 115 113 111 111 113 113 109 103 91
180 215 224 231 218 195 213 214 213 215 230 239 242 262 279 306 314 317 311 205 137 133 134 135 136 133 129 126 126 124 120 121 120 118 118 116 115 116 118 117 111 104 98 87
204 246 241 249 249 241 233 224 215 218 225 235 249 258 270 286 291 292 277 184 150 146 146 147 143 135 130 127 125 125 123 121 122 120 118 117 117 117 115 110 105 97 88 81
215 259 266 266 255 245 243 237 228 225 228 233 250 265 266 270 271 273 242 184 170 164 157 151 147 143 140 138 134 129 125 122 121 120 119 121 119 115 111 108 103 92 78 65
217 248 271 279 283 246 244 231 225 224 220 221 234 244 256 270 282 265 227 194 180 170 162 159 156 149 143 141 139 132 128 122 117 117 119 121 118 112 109 105 93 81 70 51
211 234 260 284 294 280 267 262 206 212 218 214 228 239 233 263 254 211 267 198 170 163 158 152 143 135 132 128 125 121 120 118 117 118 118 118 113 107 101 93 86 77 59 35
201 215 268 286 306 299 311 328 161 173 222 210 224 238 234 140 285 153 358 7 146 141 136 132 132 132 129 127 125 119 114 115 117 118 117 113 111 108 101 93 84 66 45 10
198 211 261 298 316 338 327 317 117 109 278 216 212 226 196 153 247 299 30 67 101 113 119 121 121 122 122 124 122 118 119 119 119 115 108 104 105 107 105 99 83 56 28 345
192 216 228 253 282 289 294 300 113 157 273 322 197 189 154 171 149 95 81 81 96 106 113 118 118 118 122 123 119 117 117 115 113 108 102 98 101 105 106 98 81 44 16 359
200 200 219 214 262 284 336 125 180 239 306 348 80 113 114 106 99 94 89 91 98 104 109 114 113 109 108 115 116 113 110 109 107 104 101 99 98 98 96 84 56 32 14 351
213 200 200 205 225 251 258 240 281 281 262 289 108 122 125 117 110 107 101 100 101 107 108 110 111 106 95 96 113 114 113 112 108 104 104 106 97 80 73 64 38 14 358 341
268 199 208 272 273 276 287 322 0 1 47 110 120 127 123 120 123 118 115 110 107 105 106 109 107 104 94 88 97 111 116 114 112 110 109 103 91 72 48 33 18 356 338 325
244 194 225 268 276 291 292 100 84 78 88 96 93 98 120 126 125 121 116 112 109 104 97 98 104 105 103 101 100 106 115 115 111 108 104 97 87 76 43 10 344 330 300 296
211 186 188 234 244 210 248 124 127 122 116 118 115 106 105 122 122 117 110 109 108 103 102 102 104 109 110 108 105 107 114 117 117 111 103 96 87 58 32 358 334 328 324 327
Height
1477 1480 1477 1476 1476 1475 1475 1476 1477 1473 1470 1471 1466 1459 1456 1454 1452 1449 1447 1446 1446 1447 1449 1451 1452 1453 1454 1455 1457 1460 1464 1468 1471 1474 1480 1484 1487 1491 1494 1497 1499 1501 1502 1503
1478 1475 1472 1473 1474 1475 1476 1476 1475 1474 1470 1469 1464 1453 1448 1446 1444 1442 1440 1439 1440 1442 1442 1444 1447 1448 1449 1450 1452 1456 1460 1464 1467 1472 1478 1482 1485 1489 1492 1495 1497 1500 1501 1502
1472 1468 1466 1471 1474 1475 1475 1476 1476 1477 1473 1469 1466 1446 1439 1433 1432 1431 1430 1430 1431 1434 1435 1437 1440 1442 1444 1446 1448 1451 1455 1460 1464 1470 1475 1479 1483 1486 1489 1492 1495 1498 1499 1500
1470 1467 1468 1470 1471 1473 1473 1471 1472 1473 1477 1476 1467 1454 1431 1427 1425 1423 1421 1421 1421 1424 1427 1429 1432 1435 1438 1441 1445 1449 1453 1457 1462 1467 1472 1476 1479 1482 1486 1490 1493 1496 1497 1498
1464 1464 1465 1467 1468 1470 1471 1468 1469 1469 1472 1472 1466 1462 1428 1425 1422 1419 1415 1413 1412 1414 1417 1421 1425 1428 1433 1437 1441 1445 1449 1454 1460 1465 1469 1474 1477 1481 1485 1488 1492 1494 1495 1496
1461 1461 1461 1462 1462 1464 1466 1468 1468 1467 1469 1463 1454 1460 1430 1425 1417 1413 1408 1405 1404 1405 1408 1412 1417 1422 1428 1434 1438 1441 1445 1451 1457 1462 1466 1471 1475 1478 1482 1486 1489 1491 1493 1494
1455 1454 1456 1457 1460 1461 1464 1470 1469 1463 1459 1452 1445 1443 1423 1416 1408 1404 1401 1397 1397 1399 1402 1405 1409 1415 1422 1428 1433 1437 1442 1448 1454 1459 1463 1468 1473 1477 1481 1485 1488 1489 1491 1492
1454 1453 1449 1450 1451 1455 1457 1460 1463 1461 1455 1452 1441 1431 1416 1406 1400 1396 1393 1391 1391 1393 1396 1400 1404 1409 1415 1422 1428 1434 1439 1445 1451 1456 1460 1466 1471 1476 1481 1485 1487 1488 1489 1489
1452 1451 1445 1444 1445 1448 1452 1453 1451 1453 1451 1450 1440 1425 1411 1399 1396 1392 1389 1387 1387 1389 1391 1394 1399 1405 1411 1418 1425 1431 1437 1443 1449 1454 1458 1464 1469 1474 1479 1483 1484 1486 1486 1486
1449 1451 1444 1441 1444 1444 1446 1447 1450 1449 1446 1444 1435 1426 1412 1400 1396 1392 1387 1383 1380 1382 1385 1388 1393 1400 1408 1416 1424 1432 1437 1442 1448 1453 1457 1462 1468 1473 1477 1480 1482 1483 1484 1484
1444 1447 1443 1442 1438 1435 1441 1443 1441 1440 1441 1445 1438 1415 1394 1392 1391 1388 1382 1377 1374 1375 1378 1383 1389 1396 1405 1415 1423 1430 1435 1440 1446 1451 1456 1462 1466 1471 1475 1477 1479 1480 1481 1481
1438 1440 1435 1432 1426 1426 1428 1429 1432 1435 1434 1433 1430 1407 1387 1387 1385 1383 1379 1374 1370 1371 1375 1381 1387 1394 1403 1412 1421 1429 1434 1439 1445 1451 1456 1461 1465 1469 1472 1475 1476 1477 1478 1477
1432 1434 1430 1427 1426 1424 1422 1421 1422 1423 1424 1424 1422 1401 1384 1384 1383 1381 1379 1375 1372 1372 1376 1381 1388 1396 1403 1411 1420 1427 1433 1437 1444 1450 1455 1459 1463 1467 1471 1473 1474 1474 1474 1474
1426 1426 1423 1415 1408 1411 1411 1412 1413 1418 1416 1412 1403 1390 1383 1384 1384 1382 1379 1376 1374 1374 1377 1383 1389 1397 1405 1412 1420 1427 1432 1437 1443 1449 1454 1459 1463 1466 1468 1470 1471 1471 1471 1470
1421 1416 1412 1407 1404 1405 1403 1403 1404 1405 1403 1403 1392 1387 1379 1383 1385 1383 1378 1375 1375 1376 1379 1384 1390 1397 1405 1413 1420 1426 1431 1437 1443 1449 1454 1458 1461 1464 1466 1467 1468 1468 1467 1466
1416 1412 1406 1398 1393 1393 1393 1392 1393 1392 1392 1392 1390 1383 1375 1380 1381 1378 1374 1374 1375 1376 1380 1385 1392 1399 1406 1412 1419 1425 1431 1437 1443 1448 1453 1457 1460 1462 1463 1465 1465 1465 1464 1464
1410 1409 1402 1389 1382 1382 1379 1373 1376 1377 1378 1382 1383 1374 1373 1376 1376 1375 1373 1372 1373 1376 1380 1386 1392 1399 1405 1413 1419 1425 1431 1437 1443 1448 1452 1456 1458 1460 1461 1462 1462 1462 1462 1462
1401 1402 1399 1390 1380 1371 1364 1357 1358 1364 1368 1371 1369 1368 1371 1373 1373 1372 1371 1371 1374 1377 1382 1387 1393 1400 1407 1414 1421 1426 1432 1437 1443 1447 1451 1454 1456 1458 1459 1460 1460 1460 1460 1458
1394 1396 1395 1387 1375 1369 1360 1356 1357 1361 1362 1361 1363 1364 1368 1370 1371 1370 1369 1370 1373 1377 1382 1387 1394 1401 1408 1415 1421 1427 1432 1438 1443 1447 1450 1453 1455 1456 1457 1458 1458 1458 1457 1455
1393 1395 1395 1387 1378 1372 1365 1358 1355 1360 1359 1352 1355 1358 1364 1369 1370 1369 1369 1370 1373 1378 1383 1389 1396 1404 1410 1417 1422 1427 1433 1438 1442 1446 1449 1451 1454 1455 1456 1456 1456 1454 1453 1451
1393 1393 1391 1388 1383 1376 1366 1361 1361 1366 1357 1349 1349 1353 1360 1364 1366 1369 1369 1372 1375 1379 1385 1392 1399 1406 1412 1418 1424 1429 1434 1438 1442 1445 1448 1451 1453 1454 1454 1454 1452 1451 1450 1448
1387 1387 1387 1386 1383 1378 1365 1365 1366 1361 1353 1351 1351 1353 1358 1363 1366 1369 1372 1374 1378 1383 1389 1395 1401 1408 1415 1421 1426 1430 1434 1438 1442 1445 1448 1450 1452 1452 1452 1451 1450 1448 1446 1443
1383 1380 1380 1380 1376 1367 1365 1364 1362 1359 1355 1353 1352 1355 1358 1363 1369 1373 1377 1380 1385 1389 1394 1401 1406 1411 1418 1424 1428 1431 1435 1439 1442 1445 1447 1449 1450 1450 1449 1448 1447 1445 1442 1439
1376 1374 1375 1373 1367 1364 1362 1362 1360 1357 1355 1354 1355 1358 1361 1366 1372 1377 1382 1387 1391 1396 1401 1406 1410 1414 1420 1426 1430 1433 1437 1440 1443 1445 1446 1447 1447 1447 1447 1445 1444 1442 1439 1436
1372 1371 1372 1370 1365 1361 1360 1361 1360 1359 1358 1358 1361 1364 1368 1371 1378 1383 1387 1392 1397 1401 1406 1411 1414 1418 1422 1427 1431 1435 1438 1441 1442 1444 1445 1445 1445 1445 1444 1443 1442 1439 1436 1433
1368 1367 1369 1366 1361 1361 1360 1361 1362 1362 1362 1363 1365 1370 1376 1379 1382 1387 1392 1397 1402 1406 1410 1415 1419 1422 1426 1429 1433 1436 1438 1440 1441 1442 1443 1444 1444 1443 1442 1441 1440 1437 1434 1431